DW0148 Weather Reports


Display with metric or nautical units.
time (UTC)temp
F
wind
direction
speed
MPH
gust
MPH
rain 1hr
in
rain 24hr
in
rain mn
in
humidity
%
barometer
mb
20191214233708 47 6 0.0 2.0 0.00 0.11 0.03 80 1010.5
20191214233205 47 6 0.0 2.0 0.00 0.11 0.03 80 1010.2
20191214232701 47 359 1.0 2.0 0.00 0.11 0.03 79 1010.2
20191214232159 47 338 0.0 2.0 0.00 0.11 0.03 79 1010.2
20191214231657 47 339 0.0 2.0 0.00 0.11 0.03 78 1010.2
20191214231156 47 338 0.0 2.0 0.00 0.11 0.03 78 1010.2
20191214230655 47 338 1.0 2.0 0.00 0.11 0.03 79 1010.2
20191214230154 47 127 1.0 2.0 0.00 0.11 0.03 79 1010.2
20191214225647 47 128 0.0 0.0 0.00 0.11 0.03 79 1010.2
20191214225147 47 128 0.0 3.0 0.00 0.11 0.03 79 1009.8
20191214224646 47 128 0.0 3.0 0.00 0.11 0.03 78 1009.8
20191214224145 47 128 0.0 3.0 0.00 0.11 0.03 78 1009.8
20191214223644 47 336 1.0 3.0 0.00 0.11 0.03 78 1009.8
20191214223142 48 259 0.0 3.0 0.00 0.11 0.03 76 1009.8
20191214222642 48 259 0.0 3.0 0.00 0.12 0.03 78 1009.8
20191214222140 48 259 0.0 3.0 0.00 0.12 0.03 76 1009.8
20191214221639 48 263 1.0 3.0 0.00 0.12 0.03 76 1009.8
20191214221138 48 42 0.0 5.0 0.00 0.12 0.03 74 1009.8
20191214220637 48 235 1.0 5.0 0.00 0.12 0.03 76 1009.5
20191214220136 48 18 0.0 5.0 0.00 0.13 0.03 75 1009.5
20191214215634 48 278 2.0 5.0 0.00 0.13 0.03 74 1009.5
20191214215133 49 259 1.0 3.0 0.00 0.13 0.03 73 1009.1
20191214214632 49 285 1.0 3.0 0.00 0.13 0.03 72 1009.1
20191214214131 49 281 1.0 3.0 0.00 0.13 0.03 72 1009.1
20191214213630 49 262 2.0 5.0 0.00 0.13 0.03 72 1009.1
20191214213128 49 356 0.0 5.0 0.00 0.14 0.03 73 1008.8
20191214212627 49 314 2.0 5.0 0.00 0.14 0.03 73 1008.8
20191214212126 49 250 0.0 5.0 0.00 0.14 0.03 74 1008.8
20191214211625 49 207 0.0 3.0 0.00 0.14 0.03 73 1008.8
20191214211124 50 227 1.0 5.0 0.00 0.15 0.03 72 1008.8
20191214210623 50 177 2.0 5.0 0.00 0.15 0.03 70 1008.5
20191214210121 50 183 1.0 5.0 0.00 0.15 0.03 70 1008.5
20191214205620 51 197 1.0 5.0 0.00 0.15 0.03 71 1008.5
20191214205119 51 213 1.0 6.0 0.00 0.15 0.03 70 1008.1
20191214204618 51 216 1.0 6.0 0.00 0.15 0.03 70 1008.1
20191214204116 51 240 1.0 9.0 0.00 0.15 0.03 71 1008.1
20191214203615 51 226 2.0 9.0 0.00 0.15 0.03 69 1008.1
20191214203114 51 172 2.0 9.0 0.00 0.15 0.03 70 1008.1
20191214202613 51 225 3.0 9.0 0.00 0.15 0.03 71 1007.8
20191214202111 50 195 2.0 6.0 0.00 0.15 0.03 71 1007.8
20191214201610 49 179 2.0 6.0 0.00 0.15 0.03 74 1007.8
20191214201109 49 182 2.0 6.0 0.00 0.16 0.03 77 1007.8
20191214200608 49 174 3.0 9.0 0.00 0.16 0.03 77 1007.8
20191214200107 49 160 2.0 9.0 0.00 0.16 0.03 76 1007.8
20191214195606 49 189 2.0 9.0 0.00 0.16 0.03 76 1007.8
20191214195105 48 205 3.0 11.0 0.00 0.16 0.03 76 1007.8
20191214194604 48 183 3.0 11.0 0.00 0.16 0.03 77 1007.5
20191214194103 48 222 3.0 11.0 0.00 0.16 0.03 79 1007.5
20191214193603 48 210 3.0 11.0 0.00 0.16 0.03 78 1007.5
20191214193102 48 184 2.0 11.0 0.00 0.16 0.03 79 1007.5
20191214192601 48 213 3.0 11.0 0.00 0.16 0.03 81 1007.5
20191214192059 48 208 3.0 14.0 0.00 0.17 0.03 82 1007.5
20191214191558 48 186 3.0 14.0 0.00 0.17 0.03 82 1007.5
20191214191057 48 213 1.0 14.0 0.00 0.17 0.03 82 1007.5
20191214190556 48 172 3.0 14.0 0.00 0.17 0.03 82 1007.5
20191214190055 48 197 2.0 12.0 0.00 0.17 0.03 82 1007.5
20191214185554 48 163 3.0 12.0 0.00 0.18 0.03 82 1007.5
20191214185053 48 143 3.0 9.0 0.00 0.18 0.03 82 1007.5
20191214184551 48 190 2.0 9.0 0.00 0.18 0.03 82 1007.5
20191214184048 48 185 3.0 9.0 0.00 0.18 0.03 81 1007.5
20191214183547 48 160 3.0 8.0 0.00 0.18 0.03 82 1007.1
20191214183045 48 163 3.0 8.0 0.00 0.19 0.03 83 1007.1
20191214182544 48 244 2.0 9.0 0.00 0.19 0.03 82 1007.1
20191214182043 48 169 2.0 9.0 0.00 0.19 0.03 83 1007.5
20191214181542 48 142 3.0 12.0 0.00 0.19 0.03 83 1007.1
20191214181041 48 196 3.0 12.0 0.00 0.19 0.03 83 1007.1
20191214180540 48 161 2.0 12.0 0.00 0.19 0.03 83 1007.1
20191214180039 48 158 5.0 12.0 0.00 0.20 0.03 82 1007.1
20191214175538 48 231 2.0 9.0 0.00 0.20 0.03 83 1006.8
20191214175036 48 76 1.0 9.0 0.00 0.20 0.03 82 1006.8
20191214174535 49 195 3.0 9.0 0.00 0.21 0.03 82 1007.1
20191214174034 48 147 2.0 8.0 0.00 0.21 0.03 84 1007.1
20191214173533 48 215 2.0 9.0 0.00 0.21 0.03 84 1007.1
20191214173032 48 240 2.0 9.0 0.00 0.21 0.03 84 1007.1
20191214172531 48 208 3.0 9.0 0.00 0.22 0.03 85 1007.1
20191214172030 48 149 2.0 11.0 0.00 0.22 0.03 87 1007.5
20191214171529 47 245 2.0 11.0 0.00 0.23 0.03 87 1007.5
20191214171028 47 239 1.0 11.0 0.00 0.24 0.03 89 1007.5
20191214170527 47 218 3.0 11.0 0.00 0.24 0.03 88 1007.5
20191214170026 47 179 2.0 9.0 0.00 0.25 0.03 87 1007.5
20191214165524 47 155 3.0 8.0 0.00 0.25 0.03 86 1007.8
20191214165023 47 235 2.0 8.0 0.00 0.25 0.03 86 1007.8
20191214164522 47 232 2.0 8.0 0.00 0.25 0.03 86 1007.8
20191214164021 47 178 2.0 9.0 0.00 0.25 0.03 86 1007.8
20191214163520 47 240 2.0 9.0 0.00 0.25 0.03 86 1007.8
20191214163019 47 245 2.0 12.0 0.00 0.25 0.03 85 1007.8
20191214162518 47 209 2.0 12.0 0.00 0.25 0.03 86 1007.5
20191214162016 47 180 3.0 12.0 0.00 0.25 0.03 87 1007.8
20191214161515 47 165 4.0 12.0 0.00 0.25 0.03 87 1007.5
20191214161014 47 193 1.0 9.0 0.00 0.25 0.03 88 1007.5
20191214160513 47 185 3.0 9.0 0.00 0.26 0.03 87 1007.5
20191214160012 47 187 3.0 9.0 0.00 0.26 0.03 86 1007.5
20191214155511 47 174 3.0 9.0 0.00 0.26 0.03 87 1007.5
20191214155010 48 171 4.0 9.0 0.00 0.26 0.03 87 1007.5
20191214154509 48 189 3.0 8.0 0.00 0.26 0.03 87 1007.1
20191214154008 47 156 3.0 11.0 0.00 0.26 0.03 88 1007.1
20191214153507 47 175 2.0 11.0 0.00 0.26 0.03 89 1007.1
20191214153006 47 167 3.0 11.0 0.00 0.26 0.03 90 1007.1
20191214152505 47 161 3.0 11.0 0.00 0.26 0.03 89 1007.1
20191214152003 47 159 4.0 8.0 0.00 0.26 0.03 88 1007.1
20191214151502 47 164 3.0 6.0 0.00 0.27 0.03 88 1007.1
20191214151001 47 157 3.0 6.0 0.00 0.27 0.03 89 1007.1
20191214150500 47 232 2.0 5.0 0.00 0.27 0.03 90 1006.8
20191214145959 46 155 2.0 5.0 0.00 0.27 0.03 91 1006.8
20191214145458 46 145 1.0 5.0 0.00 0.28 0.03 91 1006.8
20191214144957 46 183 2.0 5.0 0.00 0.28 0.03 91 1006.8
20191214144455 46 88 1.0 5.0 0.00 0.28 0.03 92 1006.8
20191214143954 45 116 1.0 5.0 0.00 0.28 0.03 92 1006.8
20191214143453 45 275 2.0 5.0 0.00 0.28 0.03 93 1006.8
20191214142952 45 89 1.0 5.0 0.00 0.28 0.03 94 1006.8
20191214142451 45 90 1.0 6.0 0.00 0.29 0.03 94 1006.8
20191214141949 45 101 0.0 6.0 0.00 0.29 0.03 95 1006.8
20191214141448 45 221 0.0 6.0 0.00 0.29 0.03 96 1006.8
20191214140947 45 172 3.0 6.0 0.00 0.29 0.03 96 1006.4
20191214140446 44 185 1.0 2.0 0.00 0.29 0.03 96 1006.4
20191214135945 44 69 1.0 2.0 0.00 0.29 0.03 96 1006.4
20191214135444 44 74 0.0 2.0 0.00 0.29 0.03 96 1006.4
20191214134943 44 72 0.0 2.0 0.00 0.29 0.03 96 1006.1
20191214134442 44 72 0.0 2.0 0.00 0.29 0.03 96 1006.1
20191214133941 44 72 1.0 2.0 0.00 0.29 0.03 96 1006.1
20191214133439 44 72 0.0 2.0 0.00 0.29 0.03 96 1006.1
20191214132939 44 72 0.0 2.0 0.00 0.29 0.03 96 1006.1
20191214132437 44 72 0.0 2.0 0.00 0.29 0.03 96 1006.1
20191214131936 44 72 1.0 3.0 0.00 0.29 0.03 96 1006.1
20191214131435 44 72 0.0 3.0 0.00 0.29 0.03 96 1006.1
20191214130934 44 72 0.0 3.0 0.00 0.29 0.03 96 1006.1
20191214130433 44 54 2.0 3.0 0.00 0.29 0.03 96 1006.1
20191214125931 44 108 0.0 3.0 0.00 0.29 0.03 96 1006.1
20191214125430 44 138 1.0 3.0 0.00 0.29 0.03 96 1005.8
20191214124929 44 72 0.0 3.0 0.00 0.29 0.03 96 1005.8
20191214124428 44 84 1.0 3.0 0.00 0.29 0.03 96 1005.8
20191214123927 44 131 1.0 2.0 0.00 0.29 0.03 96 1005.8
20191214123426 44 145 0.0 2.0 0.00 0.29 0.03 96 1005.8
20191214122925 44 145 0.0 2.0 0.00 0.29 0.03 96 1005.4
20191214122424 44 359 0.0 0.0 0.00 0.29 0.03 96 1005.4
20191214121922 44 359 0.0 0.0 0.00 0.29 0.03 96 1005.4
20191214121422 44 358 0.0 2.0 0.00 0.29 0.03 96 1005.4
20191214120921 44 358 0.0 2.0 0.00 0.29 0.03 96 1005.4
20191214120420 44 359 0.0 2.0 0.00 0.29 0.03 96 1005.1
20191214115918 44 31 1.0 2.0 0.00 0.29 0.03 96 1005.1
20191214115417 44 224 0.0 3.0 0.00 0.29 0.03 96 1005.1
20191214114916 44 225 0.0 3.0 0.00 0.29 0.03 97 1005.1
20191214114415 44 117 2.0 3.0 0.00 0.29 0.03 97 1005.1
20191214113913 44 166 0.0 3.0 0.00 0.29 0.03 97 1005.1
20191214113412 44 124 0.0 5.0 0.00 0.29 0.03 97 1005.4
20191214112910 44 117 1.0 5.0 0.00 0.29 0.03 96 1005.4
20191214112409 44 115 0.0 2.0 0.00 0.29 0.03 96 1005.4
20191214111908 44 218 0.0 2.0 0.00 0.29 0.03 96 1005.4
20191214111407 44 218 0.0 2.0 0.00 0.29 0.03 96 1005.1
20191214110902 44 218 0.0 2.0 0.00 0.29 0.03 96 1005.4
20191214110401 44 218 1.0 2.0 0.00 0.29 0.03 96 1005.1
20191214105900 44 218 0.0 3.0 0.00 0.29 0.03 96 1005.1
20191214105359 44 218 0.0 5.0 0.00 0.29 0.03 97 1005.1
20191214104858 44 218 0.0 6.0 0.00 0.29 0.03 97 1005.1
20191214104356 44 206 1.0 6.0 0.00 0.29 0.03 97 1005.4
20191214103855 44 151 2.0 6.0 0.00 0.29 0.03 97 1005.1
20191214103354 44 172 2.0 6.0 0.00 0.29 0.03 97 1005.1
20191214102853 44 163 1.0 3.0 0.00 0.29 0.03 97 1005.1
20191214102352 44 149 1.0 3.0 0.00 0.29 0.03 97 1005.1
20191214101851 44 165 2.0 3.0 0.01 0.29 0.03 97 1004.7
20191214101349 44 218 0.0 5.0 0.01 0.29 0.03 97 1004.7
20191214100848 44 218 0.0 5.0 0.01 0.29 0.03 97 1004.7
20191214100347 44 158 2.0 5.0 0.01 0.29 0.03 97 1004.7
20191214095846 44 170 2.0 4.0 0.01 0.29 0.03 97 1004.7
20191214095344 44 149 2.0 5.0 0.01 0.29 0.03 97 1004.7
20191214094843 44 124 2.0 5.0 0.01 0.29 0.03 97 1004.7
20191214094342 44 103 0.0 5.0 0.01 0.29 0.03 97 1004.7
20191214093840 44 191 2.0 5.0 0.01 0.29 0.03 97 1004.7
20191214093339 44 108 0.0 3.0 0.01 0.29 0.03 97 1004.7
20191214092838 44 164 2.0 3.0 0.01 0.29 0.03 97 1004.7
20191214092337 44 113 0.0 3.0 0.00 0.28 0.03 97 1004.7
20191214091335 43 122 0.0 5.0 0.00 0.29 0.02 97 1005.1
20191214090833 43 122 2.0 5.0 0.00 0.29 0.02 97 1005.1
20191214090332 43 174 1.0 5.0 0.00 0.29 0.02 97 1005.1
20191214085831 43 61 1.0 6.0 0.00 0.29 0.02 97 1005.1
20191214085330 43 157 2.0 6.0 0.00 0.29 0.02 97 1005.1
20191214084829 43 188 1.0 6.0 0.00 0.29 0.02 97 1005.1
20191214084318 43 172 0.0 5.0 0.00 0.29 0.02 97 1005.1
20191214083817 43 152 0.0 5.0 0.00 0.29 0.02 97 1005.1
20191214083310 43 160 2.0 5.0 0.00 0.29 0.02 97 1005.1
20191214082807 43 91 1.0 2.0 0.00 0.29 0.02 97 1005.1
20191214055221 42 159 0.0 2.0 0.01 0.28 0.01 97 1006.1
20191214054720 42 159 0.0 2.0 0.01 0.28 0.01 97 1006.4
20191214054219 42 159 0.0 0.0 0.01 0.28 0.01 97 1006.4
20191214053718 42 159 0.0 0.0 0.01 0.28 0.01 97 1006.4
20191214052207 42 159 0.0 2.0 0.00 0.27 0.00 97 1006.8
20191214051706 42 159 0.0 2.0 0.00 0.27 0.00 97 1006.8
20191214051205 42 159 0.0 2.0 0.00 0.27 0.00 97 1006.8
20191214050704 42 159 0.0 2.0 0.00 0.27 0.00 97 1007.1
20191214050203 42 159 0.0 2.0 0.00 0.27 0.00 97 1007.5
20191214045701 42 160 0.0 2.0 0.01 0.27 0.27 97 1007.5
20191214045200 42 159 0.0 2.0 0.01 0.27 0.27 97 1007.5
20191214044659 42 159 0.0 2.0 0.01 0.27 0.27 97 1007.5
20191214044158 42 159 0.0 2.0 0.01 0.27 0.27 97 1007.5
20191214043657 42 158 1.0 2.0 0.01 0.27 0.27 97 1007.8
20191214043156 42 157 0.0 0.0 0.01 0.27 0.27 97 1007.8
20191214042655 42 157 0.0 0.0 0.01 0.27 0.27 97 1007.8
20191214042154 42 157 0.0 2.0 0.01 0.27 0.27 97 1007.8
20191214041652 42 156 0.0 3.0 0.01 0.27 0.27 97 1007.8
20191214041151 42 157 0.0 3.0 0.01 0.27 0.27 97 1007.8
20191214040650 42 156 0.0 3.0 0.01 0.27 0.27 97 1007.8
20191214040149 42 156 0.0 3.0 0.00 0.26 0.26 97 1008.1
20191214035648 42 149 2.0 3.0 0.00 0.26 0.26 97 1008.5
20191214035147 42 161 2.0 3.0 0.00 0.26 0.26 97 1008.5
20191214034646 42 181 0.0 0.0 0.00 0.26 0.26 97 1008.1
20191214034145 42 181 0.0 2.0 0.00 0.26 0.26 97 1008.1
20191214033644 42 181 0.0 2.0 0.00 0.26 0.26 97 1008.1
20191214033142 42 181 0.0 2.0 0.00 0.26 0.26 97 1007.8
20191214032641 42 181 0.0 2.0 0.01 0.26 0.26 97 1008.1
20191214032140 42 181 0.0 2.0 0.01 0.26 0.26 97 1008.1
20191214031639 42 219 1.0 2.0 0.01 0.26 0.26 97 1007.8
20191214031138 42 3 0.0 2.0 0.01 0.26 0.26 97 1007.5
20191214030637 42 3 0.0 5.0 0.01 0.26 0.26 97 1007.1
20191214030136 42 3 1.0 5.0 0.01 0.26 0.26 97 1007.1
20191214025635 42 0 1.0 5.0 0.02 0.26 0.26 97 1006.8
20191214025134 42 30 1.0 5.0 0.02 0.26 0.26 97 1007.1
20191214024633 42 335 3.0 5.0 0.02 0.27 0.26 97 1007.1
20191214024132 42 354 3.0 3.0 0.02 0.27 0.26 97 1007.5
20191214023631 42 21 1.0 2.0 0.03 0.27 0.26 97 1008.1
20191214023130 42 22 1.0 2.0 0.03 0.27 0.26 97 1008.1
20191214022629 42 23 0.0 2.0 0.02 0.26 0.25 97 1008.5
20191214022127 42 23 1.0 2.0 0.03 0.26 0.25 97 1008.5
20191214021626 42 23 1.0 2.0 0.03 0.26 0.25 97 1008.5
20191214021125 42 23 0.0 0.0 0.03 0.26 0.25 97 1008.8
20191214020623 42 23 0.0 2.0 0.03 0.26 0.25 97 1009.1
20191214020123 42 23 0.0 2.0 0.03 0.26 0.25 97 1008.8
20191214015621 42 23 0.0 2.0 0.03 0.25 0.24 97 1008.8
20191214015120 42 23 0.0 2.0 0.03 0.25 0.24 96 1008.8
20191214014619 42 10 0.0 2.0 0.03 0.25 0.24 97 1008.8
20191214014117 42 10 0.0 2.0 0.03 0.25 0.24 97 1009.1
20191214013616 42 10 0.0 2.0 0.02 0.24 0.23 97 1009.5
20191214013115 42 10 0.0 3.0 0.03 0.24 0.23 96 1009.5
20191214012614 42 10 0.0 3.0 0.03 0.24 0.23 96 1009.1
20191214012113 42 10 0.0 3.0 0.02 0.23 0.22 96 1009.1
20191214011612 42 11 0.0 3.0 0.02 0.23 0.22 96 1009.1
20191214011111 42 42 1.0 2.0 0.02 0.23 0.22 96 1009.1
20191214010610 42 42 0.0 2.0 0.02 0.23 0.22 96 1009.5
20191214010109 42 42 0.0 0.0 0.02 0.23 0.22 96 1009.8
20191214005607 42 42 0.0 2.0 0.02 0.22 0.21 96 1009.8
20191214005106 42 42 0.0 3.0 0.02 0.22 0.21 96 1010.2
20191214004605 42 42 0.0 3.0 0.02 0.22 0.21 96 1010.2
20191214004104 42 42 1.0 3.0 0.02 0.22 0.21 96 1010.2
20191214003602 42 32 2.0 3.0 0.02 0.22 0.21 96 1010.2
20191214003101 42 25 0.0 0.0 0.01 0.21 0.20 96 1010.2
20191214002600 42 25 0.0 0.0 0.01 0.21 0.20 96 1010.5
20191214002059 42 25 0.0 0.0 0.01 0.21 0.20 96 1010.5
20191214001558 42 25 0.0 0.0 0.01 0.21 0.20 96 1010.5
20191214001056 42 25 0.0 0.0 0.01 0.21 0.20 96 1010.5
20191214000555 42 26 0.0 0.0 0.01 0.21 0.20 96 1010.5
20191214000053 42 26 0.0 0.0 0.01 0.21 0.20 96 1010.8
20191213235551 42 25 0.0 0.0 0.00 0.20 0.19 96 1010.8
20191213235050 42 26 0.0 0.0 0.00 0.20 0.19 96 1010.8
20191213234549 42 25 0.0 2.0 0.00 0.20 0.19 96 1010.8
20191213234049 42 25 0.0 2.0 0.00 0.20 0.19 96 1010.8